EW4529 Weather Reports


time (UTC)temp
C
wind
direction
speed
KPH
gust
KPH
rain 1hr
cm
rain 24hr
cm
rain mn
cm
humidity
%
barometer
mb
20260504160322 22 49 1.6 11.3 0.00 0.00 0.00 33 1013.4
20260504150320 20 250 0.0 12.9 0.00 0.00 0.00 41 1013.9
20260504141318 17 56 1.6 6.4 0.00 0.00 0.00 56 1014.0
20260504140314 17 269 1.6 12.9 0.00 0.00 0.00 55 1014.2
20260504130317 15 248 3.2 8.0 0.00 0.00 0.00 63 1014.6
20260504110312 7 96 0.0 0.0 0.00 0.00 0.00 89 1015.1
20260504100315 6 146 0.0 0.0 0.00 0.00 0.00 86 1015.2
20260504081309 5 261 0.0 0.0 0.00 0.00 0.00 78 1015.0
20260504080325 6 261 0.0 0.0 0.00 0.00 0.00 76 1014.9
20260504050323 8 143 0.0 0.0 0.00 0.00 0.00 62 1014.7
20260504045321 8 143 0.0 0.0 0.00 0.00 0.00 61 1014.7
20260504044341 8 143 0.0 0.0 0.00 0.00 0.00 60 1014.6
20260504043323 8 231 0.0 0.0 0.00 0.00 0.00 60 1014.6
20260504042340 8 290 0.0 0.0 0.00 0.00 0.00 58 1014.4
20260504041320 8 134 0.0 1.6 0.00 0.00 0.00 58 1014.4
20260504040314 8 137 0.0 0.0 0.00 0.00 0.00 58 1014.2
20260504035315 8 256 0.0 3.2 0.00 0.00 0.00 58 1014.2
20260504034316 8 135 0.0 1.6 0.00 0.00 0.00 58 1014.2
20260504033316 8 305 0.0 1.6 0.00 0.00 0.00 59 1014.1
20260504032316 8 290 0.0 1.6 0.00 0.00 0.00 59 1014.1
20260504031317 8 224 0.0 0.0 0.00 0.00 0.00 59 1014.1
20260504030313 8 226 0.0 1.6 0.00 0.00 0.00 60 1014.0
20260504025310 8 320 0.0 0.0 0.00 0.00 0.00 59 1014.1
20260504024314 8 320 0.0 3.2 0.00 0.00 0.00 59 1014.2
20260504023314 8 120 0.0 0.0 0.00 0.00 0.00 59 1014.2
20260504022338 8 120 0.0 0.0 0.00 0.00 0.00 60 1014.1
20260504021319 8 119 0.0 0.0 0.00 0.00 0.00 60 1014.1
20260504020327 8 119 0.0 1.6 0.00 0.00 0.00 60 1014.1
20260504015350 8 122 0.0 0.0 0.00 0.00 0.00 59 1014.0
20260504014350 9 122 0.0 0.0 0.00 0.00 0.00 59 1014.0
20260504013325 9 122 0.0 0.0 0.00 0.00 0.00 58 1013.9
20260504012327 9 122 0.0 0.0 0.00 0.00 0.00 57 1013.8
20260504011312 10 122 0.0 0.0 0.00 0.00 0.00 55 1013.7
20260504010309 10 122 0.0 0.0 0.00 0.00 0.00 54 1013.5
20260504005311 10 122 0.0 0.0 0.00 0.00 0.00 53 1013.4
20260504004311 11 122 0.0 0.0 0.00 0.00 0.00 52 1013.3
20260504003310 11 122 0.0 0.0 0.00 0.00 0.00 50 1013.1
20260504002313 11 122 0.0 0.0 0.00 0.00 0.00 47 1013.0
20260504001317 12 124 0.0 0.0 0.00 0.00 0.00 45 1013.0
20260504000324 12 134 0.0 1.6 0.00 0.00 0.00 43 1012.9
20260503235327 13 110 0.0 3.2 0.00 0.00 0.00 41 1012.8
20260503234336 13 269 0.0 1.6 0.00 0.00 0.00 41 1012.8
20260503233329 13 17 1.6 8.0 0.00 0.00 0.00 38 1012.6
20260503232312 13 122 1.6 8.0 0.00 0.00 0.00 38 1012.6
20260503231330 14 236 0.0 6.4 0.00 0.00 0.00 37 1012.6
20260503230324 14 58 1.6 8.0 0.00 0.00 0.00 36 1012.5
20260503225326 15 265 0.0 9.7 0.00 0.00 0.00 36 1012.5
20260503224325 15 35 0.0 8.0 0.00 0.00 0.00 35 1012.4
20260503223317 15 10 1.6 8.0 0.00 0.00 0.00 33 1012.4
20260503222338 15 259 1.6 6.4 0.00 0.00 0.00 34 1012.4
20260503221320 15 266 3.2 9.7 0.00 0.00 0.00 33 1012.4
20260503220341 15 150 1.6 9.7 0.00 0.00 0.00 34 1012.3
20260503215323 15 115 1.6 9.7 0.00 0.00 0.00 33 1012.3
20260503214319 16 36 1.6 12.9 0.00 0.00 0.00 32 1012.4
20260503213313 16 324 1.6 9.7 0.00 0.00 0.00 32 1012.3
20260503212312 16 148 1.6 11.3 0.00 0.00 0.00 32 1012.3
20260503211325 16 116 1.6 11.3 0.00 0.00 0.00 31 1012.3
20260503210315 17 359 1.6 12.9 0.00 0.00 0.00 31 1012.4
20260503205316 16 88 6.4 14.5 0.00 0.00 0.00 30 1012.2
20260503204349 16 252 3.2 11.3 0.00 0.00 0.00 32 1012.4
20260503203344 16 340 4.8 14.5 0.00 0.00 0.00 33 1012.4
20260503202346 16 352 6.4 12.9 0.00 0.00 0.00 32 1012.6
20260503201316 16 11 3.2 12.9 0.00 0.00 0.00 31 1012.6
20260503200315 16 266 4.8 14.5 0.00 0.00 0.00 33 1012.6
20260503195317 16 77 4.8 16.1 0.00 0.00 0.00 31 1012.6
20260503194331 16 227 3.2 17.7 0.00 0.00 0.00 32 1012.8
20260503193323 16 319 3.2 14.5 0.00 0.00 0.00 30 1012.8
20260503192320 16 26 3.2 14.5 0.00 0.00 0.00 32 1012.9
20260503191318 16 345 3.2 11.3 0.00 0.00 0.00 32 1013.0
20260503190311 16 116 4.8 19.3 0.00 0.00 0.00 32 1013.0
20260503185332 15 241 3.2 11.3 0.00 0.00 0.00 33 1013.0
20260503184331 15 150 3.2 11.3 0.00 0.00 0.00 34 1013.4
20260503183351 15 56 6.4 16.1 0.00 0.00 0.00 33 1013.2
20260503182333 15 352 3.2 11.3 0.00 0.00 0.00 34 1013.4
20260503180314 15 268 1.6 11.3 0.00 0.00 0.00 35 1013.4
20260503175316 14 349 4.8 12.9 0.00 0.00 0.00 33 1013.6
20260503174315 15 76 3.2 11.3 0.00 0.00 0.00 37 1013.8
20260503173313 13 302 3.2 14.5 0.00 0.00 0.00 38 1013.8
20260503172317 13 58 3.2 8.0 0.00 0.00 0.00 37 1013.8
20260503171313 13 33 4.8 22.5 0.00 0.00 0.00 37 1013.9
20260503170337 13 40 3.2 14.5 0.00 0.00 0.00 39 1013.8